����,���ϕ���(m/s),���ϕ���,�ő�u�ԕ���(m/s),�ő啗��������,�C��(��),���x(%),10���Ԉړ��ώZ�J��(mm),1���Ԉړ��ώZ�J��(mm),���J��(mm),�݌v�J��(mm),����(���ώZ)(MJ/m2),����(���ώZ)(min),���n�C��(hPa),�C�ʋC��(hPa)
2023-04-03T00:00:00+09:00,2.6,�k,5.6,�k,9.2,75.4,0,0,0,0,18.72,581,1007.9,1022.1
2023-04-03T00:01:00+09:00,2.7,�k,5.6,�k,9.2,75.5,0,0,0,0,0,0,1007.8,1022
2023-04-03T00:02:00+09:00,2.9,�k,5.6,�k,9.1,75.4,0,0,0,0,0,0,1007.9,1022.1
2023-04-03T00:03:00+09:00,2.9,�k,5.6,�k,9.1,75.7,0,0,0,0,0,0,1007.9,1022.1
2023-04-03T00:04:00+09:00,2.9,�k,5.6,�k,9.1,75.7,0,0,0,0,0,0,1007.9,1022.1
2023-04-03T00:05:00+09:00,2.7,�k,5.6,�k,9.1,76,0,0,0,0,0,0,1007.9,1022.1
2023-04-03T00:06:00+09:00,2.6,�k,5.6,�k,9.1,75.9,0,0,0,0,0,0,1007.9,1022.1
2023-04-03T00:07:00+09:00,2.3,�k,4.7,�k�k��,9,76,0,0,0,0,0,0,1007.9,1022.1
2023-04-03T00:08:00+09:00,2.2,�k,4.9,�k,9.1,76.3,0,0,0,0,0,0,1007.8,1022
2023-04-03T00:09:00+09:00,2,�k,4.9,�k,9,76.5,0,0,0,0,0,0,1007.9,1022.1
2023-04-03T00:10:00+09:00,1.9,�k,4.9,�k,9.1,76.4,0,0,0,0,0,0,1007.8,1022
2023-04-03T00:11:00+09:00,1.8,�k,4.9,�k,9.1,76.5,0,0,0,0,0,0,1007.8,1022
2023-04-03T00:12:00+09:00,1.7,�k,4.9,�k,9.1,76.5,0,0,0,0,0,0,1007.8,1022
2023-04-03T00:13:00+09:00,1.7,�k,4.9,�k,9.2,76.6,0,0,0,0,0,0,1007.7,1021.9
2023-04-03T00:14:00+09:00,1.7,�k,4.9,�k,9.1,76.6,0,0,0,0,0,0,1007.7,1021.9
2023-04-03T00:15:00+09:00,1.8,�k,4.9,�k,9,76.2,0,0,0,0,0,0,1007.7,1021.9
2023-04-03T00:16:00+09:00,1.9,�k,5.2,�k,9,76.4,0,0,0,0,0,0,1007.7,1021.9
2023-04-03T00:17:00+09:00,2,�k,5.2,�k,9.2,76.8,0,0,0,0,0,0,1007.7,1021.9
2023-04-03T00:18:00+09:00,2,�k,5.2,�k,9.1,76.7,0,0,0,0,0,0,1007.7,1021.9
2023-04-03T00:19:00+09:00,2.1,�k,5.2,�k,9,76.2,0,0,0,0,0,0,1007.7,1021.9
2023-04-03T00:20:00+09:00,2.1,�k,5.2,�k,8.9,76.2,0,0,0,0,0,0,1007.7,1021.9
2023-04-03T00:21:00+09:00,2.1,�k,5.2,�k,8.8,76.1,0,0,0,0,0,0,1007.7,1021.9
2023-04-03T00:22:00+09:00,2.3,�k,5.2,�k,8.8,76.6,0,0,0,0,0,0,1007.7,1021.9
2023-04-03T00:23:00+09:00,2.3,�k,5.2,�k,8.9,77,0,0,0,0,0,0,1007.7,1021.9
2023-04-03T00:24:00+09:00,2.4,�k,5.2,�k,8.9,77.1,0,0,0,0,0,0,1007.7,1021.9
2023-04-03T00:25:00+09:00,2.5,�k,5.2,�k,8.9,77.3,0,0,0,0,0,0,1007.7,1021.9
2023-04-03T00:26:00+09:00,2.5,�k,5.1,�k�k��,9.2,77.5,0,0,0,0,0,0,1007.6,1021.8
2023-04-03T00:27:00+09:00,2.5,�k,5.1,�k�k��,9.3,77.5,0,0,0,0,0,0,1007.7,1021.9
2023-04-03T00:28:00+09:00,2.6,�k,5.1,�k�k��,9.4,77.2,0,0,0,0,0,0,1007.7,1021.9
2023-04-03T00:29:00+09:00,2.7,�k,5.1,�k�k��,9.4,76.4,0,0,0,0,0,0,1007.7,1021.9
2023-04-03T00:30:00+09:00,2.8,�k,5.1,�k�k��,9.2,75.6,0,0,0,0,0,0,1007.6,1021.8
2023-04-03T00:31:00+09:00,2.9,�k,5.1,�k�k��,9,75.2,0,0,0,0,0,0,1007.6,1021.8
2023-04-03T00:32:00+09:00,2.9,�k,5.1,�k�k��,9.1,75.7,0,0,0,0,0,0,1007.6,1021.8
2023-04-03T00:33:00+09:00,3,�k�k��,5.1,�k�k��,9.3,76.2,0,0,0,0,0,0,1007.6,1021.8
2023-04-03T00:34:00+09:00,3,�k�k��,4.9,�k�k��,9.4,76.5,0,0,0,0,0,0,1007.6,1021.8
2023-04-03T00:35:00+09:00,3,�k�k��,4.9,�k�k��,9.1,75.6,0,0,0,0,0,0,1007.6,1021.8
2023-04-03T00:36:00+09:00,2.9,�k�k��,4.8,�k�k��,9.1,75.4,0,0,0,0,0,0,1007.6,1021.8
2023-04-03T00:37:00+09:00,2.9,�k�k��,4.8,�k�k��,9,75.7,0,0,0,0,0,0,1007.6,1021.8
2023-04-03T00:38:00+09:00,2.8,�k�k��,4.8,�k�k��,9,75.5,0,0,0,0,0,0,1007.6,1021.8
2023-04-03T00:39:00+09:00,2.8,�k�k��,4.8,�k�k��,8.8,75.6,0,0,0,0,0,0,1007.6,1021.8
2023-04-03T00:40:00+09:00,2.7,�k�k��,4.8,�k�k��,8.8,75.9,0,0,0,0,0,0,1007.6,1021.8
2023-04-03T00:41:00+09:00,2.7,�k�k��,4.8,�k�k��,8.8,76.4,0,0,0,0,0,0,1007.6,1021.8
2023-04-03T00:42:00+09:00,2.8,�k�k��,4.8,�k�k��,8.7,76.5,0,0,0,0,0,0,1007.6,1021.8
2023-04-03T00:43:00+09:00,2.8,�k,4.8,�k�k��,8.9,77.2,0,0,0,0,0,0,1007.6,1021.8
2023-04-03T00:44:00+09:00,2.6,�k,4.8,�k�k��,8.9,77.5,0,0,0,0,0,0,1007.7,1021.9
2023-04-03T00:45:00+09:00,2.6,�k,4.8,�k�k��,8.7,76.8,0,0,0,0,0,0,1007.7,1021.9
2023-04-03T00:46:00+09:00,2.5,�k,4.7,�k,8.6,76.7,0,0,0,0,0,0,1007.6,1021.8
2023-04-03T00:47:00+09:00,2.6,�k�k��,4.7,�k,8.7,77,0,0,0,0,0,0,1007.7,1021.9
2023-04-03T00:48:00+09:00,2.6,�k�k��,4.7,�k,8.9,78,0,0,0,0,0,0,1007.6,1021.8
2023-04-03T00:49:00+09:00,2.7,�k�k��,4.7,�k,9,78,0,0,0,0,0,0,1007.7,1021.9
2023-04-03T00:50:00+09:00,2.7,�k�k��,4.7,�k,8.7,77.4,0,0,0,0,0,0,1007.7,1021.9
2023-04-03T00:51:00+09:00,2.7,�k�k��,4.7,�k,8.7,77.1,0,0,0,0,0,0,1007.7,1021.9
2023-04-03T00:52:00+09:00,2.6,�k�k��,4.6,�k�k��,8.6,77.2,0,0,0,0,0,0,1007.7,1021.9
2023-04-03T00:53:00+09:00,2.6,�k�k��,4.6,�k�k��,8.7,77.5,0,0,0,0,0,0,1007.7,1021.9
2023-04-03T00:54:00+09:00,2.7,�k�k��,4.8,�k�k��,8.7,77.8,0,0,0,0,0,0,1007.7,1021.9
2023-04-03T00:55:00+09:00,2.6,�k,4.8,�k�k��,8.7,77.9,0,0,0,0,0,0,1007.7,1021.9
2023-04-03T00:56:00+09:00,2.5,�k,4.8,�k�k��,8.8,77.9,0,0,0,0,0,0,1007.7,1021.9
2023-04-03T00:57:00+09:00,2.3,�k,4.8,�k�k��,8.7,77.5,0,0,0,0,0,0,1007.7,1021.9
2023-04-03T00:58:00+09:00,2.2,�k,4.8,�k�k��,8.7,77.4,0,0,0,0,0,0,1007.7,1021.9
2023-04-03T00:59:00+09:00,2.1,�k,4.8,�k�k��,8.7,77.4,0,0,0,0,0,0,1007.7,1021.9
2023-04-03T01:00:00+09:00,2,�k,4.8,�k�k��,8.7,77.4,0,0,0,0,0,0,1007.7,1021.9
2023-04-03T01:01:00+09:00,1.9,�k,4.8,�k�k��,8.9,77.7,0,0,0,0,0,0,1007.7,1021.9
2023-04-03T01:02:00+09:00,1.9,�k,4.8,�k�k��,8.8,77.4,0,0,0,0,0,0,1007.7,1021.9
2023-04-03T01:03:00+09:00,1.8,�k,4.8,�k�k��,8.7,77,0,0,0,0,0,0,1007.7,1021.9
2023-04-03T01:04:00+09:00,1.7,�k,4.5,�k�k��,8.7,76.9,0,0,0,0,0,0,1007.6,1021.8
2023-04-03T01:05:00+09:00,1.6,�k,4.5,�k�k��,8.6,77.1,0,0,0,0,0,0,1007.6,1021.8
2023-04-03T01:06:00+09:00,1.6,�k,4.5,�k�k��,8.5,76.9,0,0,0,0,0,0,1007.6,1021.8
2023-04-03T01:07:00+09:00,1.6,�k,4.5,�k�k��,8.5,77.1,0,0,0,0,0,0,1007.6,1021.8
2023-04-03T01:08:00+09:00,1.6,�k,4.5,�k�k��,8.6,77.7,0,0,0,0,0,0,1007.6,1021.8
2023-04-03T01:09:00+09:00,1.7,�k,4.1,�k�k��,8.7,78,0,0,0,0,0,0,1007.6,1021.8
2023-04-03T01:10:00+09:00,1.6,�k,3.5,�k,8.7,77.8,0,0,0,0,0,0,1007.6,1021.8
2023-04-03T01:11:00+09:00,1.7,�k,4,�k,8.7,77.6,0,0,0,0,0,0,1007.6,1021.8
2023-04-03T01:12:00+09:00,1.7,�k,4,�k,8.8,77.4,0,0,0,0,0,0,1007.7,1021.9
2023-04-03T01:13:00+09:00,1.7,�k,4,�k,8.7,77.4,0,0,0,0,0,0,1007.6,1021.8
2023-04-03T01:14:00+09:00,1.6,�k,4,�k,8.6,77.3,0,0,0,0,0,0,1007.6,1021.8
2023-04-03T01:15:00+09:00,1.6,�k,4,�k,8.6,77,0,0,0,0,0,0,1007.6,1021.8
2023-04-03T01:16:00+09:00,1.6,�k,4,�k,8.6,77.2,0,0,0,0,0,0,1007.6,1021.8
2023-04-03T01:17:00+09:00,1.6,�k,4,�k,8.5,77.5,0,0,0,0,0,0,1007.6,1021.8
2023-04-03T01:18:00+09:00,1.5,�k,4,�k,8.5,77.4,0,0,0,0,0,0,1007.6,1021.8
2023-04-03T01:19:00+09:00,1.5,�k,4,�k,8.5,77.6,0,0,0,0,0,0,1007.6,1021.8
2023-04-03T01:20:00+09:00,1.5,�k,4,�k,8.5,77.9,0,0,0,0,0,0,1007.6,1021.8
2023-04-03T01:21:00+09:00,1.5,�k,3.4,�k,8.6,77.8,0,0,0,0,0,0,1007.6,1021.8
2023-04-03T01:22:00+09:00,1.5,�k,3.4,�k,8.6,77.7,0,0,0,0,0,0,1007.6,1021.8
2023-04-03T01:23:00+09:00,1.5,�k,3.4,�k,8.4,77.2,0,0,0,0,0,0,1007.6,1021.9
2023-04-03T01:24:00+09:00,1.6,�k,3.4,�k,8.4,77.5,0,0,0,0,0,0,1007.7,1022
2023-04-03T01:25:00+09:00,1.7,�k,3.4,�k,8.3,77.6,0,0,0,0,0,0,1007.6,1021.9
2023-04-03T01:26:00+09:00,1.8,�k,3.4,�k,8.3,77.8,0,0,0,0,0,0,1007.7,1022
2023-04-03T01:27:00+09:00,1.8,�k,3.4,�k,8.2,78.1,0,0,0,0,0,0,1007.7,1022
2023-04-03T01:28:00+09:00,1.8,�k,3.4,�k,8.2,78.3,0,0,0,0,0,0,1007.7,1022
2023-04-03T01:29:00+09:00,1.7,�k,3.3,�k,8.4,78.8,0,0,0,0,0,0,1007.6,1021.9
2023-04-03T01:30:00+09:00,1.7,�k,2.9,�k�k��,8.4,79.2,0,0,0,0,0,0,1007.7,1022
2023-04-03T01:31:00+09:00,1.6,�k,2.9,�k�k��,8.3,78.9,0,0,0,0,0,0,1007.6,1021.9
2023-04-03T01:32:00+09:00,1.6,�k,2.9,�k�k��,8.4,78.9,0,0,0,0,0,0,1007.6,1021.9
2023-04-03T01:33:00+09:00,1.6,�k,2.9,�k�k��,8.4,78.7,0,0,0,0,0,0,1007.7,1022
2023-04-03T01:34:00+09:00,1.6,�k�k��,2.9,�k�k��,8.3,78.7,0,0,0,0,0,0,1007.6,1021.9
2023-04-03T01:35:00+09:00,1.6,�k�k��,2.9,�k�k��,8.6,78.9,0,0,0,0,0,0,1007.6,1021.8
2023-04-03T01:36:00+09:00,1.6,�k�k��,3,�k,8.6,79.2,0,0,0,0,0,0,1007.7,1021.9
2023-04-03T01:37:00+09:00,1.6,�k,3,�k,8.4,78.4,0,0,0,0,0,0,1007.6,1021.9
2023-04-03T01:38:00+09:00,1.6,�k�k��,3,�k,8.2,77.7,0,0,0,0,0,0,1007.6,1021.9
2023-04-03T01:39:00+09:00,1.6,�k,3,�k,8.2,77.8,0,0,0,0,0,0,1007.6,1021.9
2023-04-03T01:40:00+09:00,1.6,�k,3,�k,8.2,78.1,0,0,0,0,0,0,1007.6,1021.9
2023-04-03T01:41:00+09:00,1.6,�k,3,�k,8,78.4,0,0,0,0,0,0,1007.6,1021.9
2023-04-03T01:42:00+09:00,1.5,�k,3,�k,8.1,78.8,0,0,0,0,0,0,1007.6,1021.9
2023-04-03T01:43:00+09:00,1.5,�k,3,�k,8.2,78.9,0,0,0,0,0,0,1007.5,1021.8
2023-04-03T01:44:00+09:00,1.4,�k,3,�k,8.2,79.2,0,0,0,0,0,0,1007.5,1021.8
2023-04-03T01:45:00+09:00,1.4,�k,3,�k,8.3,79.4,0,0,0,0,0,0,1007.5,1021.8
2023-04-03T01:46:00+09:00,1.4,�k,3.3,�k�k��,8.2,79.4,0,0,0,0,0,0,1007.5,1021.8
2023-04-03T01:47:00+09:00,1.4,�k,3.3,�k�k��,8.2,79.1,0,0,0,0,0,0,1007.6,1021.9
2023-04-03T01:48:00+09:00,1.3,�k,3.3,�k�k��,8.2,79.2,0,0,0,0,0,0,1007.6,1021.9
2023-04-03T01:49:00+09:00,1.3,�k�k��,3.3,�k�k��,8.3,79.2,0,0,0,0,0,0,1007.5,1021.8
2023-04-03T01:50:00+09:00,1.4,�k�k��,3.3,�k�k��,8.3,79.2,0,0,0,0,0,0,1007.5,1021.8
2023-04-03T01:51:00+09:00,1.4,�k�k��,3.3,�k�k��,8.2,78.9,0,0,0,0,0,0,1007.5,1021.8
2023-04-03T01:52:00+09:00,1.4,�k�k��,3.3,�k�k��,8.2,78.8,0,0,0,0,0,0,1007.5,1021.8
2023-04-03T01:53:00+09:00,1.3,�k�k��,3.3,�k�k��,8.1,78.6,0,0,0,0,0,0,1007.5,1021.8
2023-04-03T01:54:00+09:00,1.2,�k�k��,3.3,�k�k��,8.2,79,0,0,0,0,0,0,1007.4,1021.7
2023-04-03T01:55:00+09:00,1.2,�k�k��,3.3,�k�k��,8.3,79.3,0,0,0,0,0,0,1007.4,1021.7
2023-04-03T01:56:00+09:00,1.3,�k�k��,2.5,�k,8.2,79,0,0,0,0,0,0,1007.4,1021.7
2023-04-03T01:57:00+09:00,1.3,�k�k��,2.5,�k,8.3,78.9,0,0,0,0,0,0,1007.4,1021.7
2023-04-03T01:58:00+09:00,1.5,�k�k��,2.6,�k�k��,8.2,78.7,0,0,0,0,0,0,1007.4,1021.7
2023-04-03T01:59:00+09:00,1.5,�k�k��,2.8,�k�k��,8.4,79.3,0,0,0,0,0,0,1007.5,1021.8
2023-04-03T02:00:00+09:00,1.5,�k�k��,2.8,�k�k��,8.3,79,0,0,0,0,0,0,1007.5,1021.8
2023-04-03T02:01:00+09:00,1.5,�k�k��,2.8,�k�k��,8.2,78.6,0,0,0,0,0,0,1007.5,1021.8
2023-04-03T02:02:00+09:00,1.5,�k�k��,2.8,�k�k��,8.1,78.4,0,0,0,0,0,0,1007.5,1021.8
2023-04-03T02:03:00+09:00,1.5,�k�k��,2.8,�k�k��,8.1,78.5,0,0,0,0,0,0,1007.5,1021.8
2023-04-03T02:04:00+09:00,1.6,�k�k��,2.8,�k�k��,8,78.7,0,0,0,0,0,0,1007.5,1021.8
2023-04-03T02:05:00+09:00,1.5,�k,2.8,�k�k��,8.1,79.1,0,0,0,0,0,0,1007.5,1021.8
2023-04-03T02:06:00+09:00,1.5,�k,2.8,�k�k��,8,79.2,0,0,0,0,0,0,1007.5,1021.8
2023-04-03T02:07:00+09:00,1.5,�k,2.8,�k�k��,8.1,79.6,0,0,0,0,0,0,1007.5,1021.8
2023-04-03T02:08:00+09:00,1.4,�k,2.8,�k�k��,8.2,79.8,0,0,0,0,0,0,1007.4,1021.7
2023-04-03T02:09:00+09:00,1.4,�k,2.5,�k�k��,8.2,80,0,0,0,0,0,0,1007.4,1021.7
2023-04-03T02:10:00+09:00,1.5,�k�k��,2.6,�k�k��,8.4,80.2,0,0,0,0,0,0,1007.4,1021.6
2023-04-03T02:11:00+09:00,1.5,�k�k��,2.7,�k,8.1,79.4,0,0,0,0,0,0,1007.4,1021.7
2023-04-03T02:12:00+09:00,1.6,�k�k��,2.7,�k,8.4,79.5,0,0,0,0,0,0,1007.4,1021.6
2023-04-03T02:13:00+09:00,1.6,�k�k��,2.8,�k�k��,8.3,79.7,0,0,0,0,0,0,1007.4,1021.7
2023-04-03T02:14:00+09:00,1.6,�k�k��,2.8,�k�k��,8.1,78.6,0,0,0,0,0,0,1007.4,1021.7
2023-04-03T02:15:00+09:00,1.7,�k�k��,2.8,�k�k��,8.1,78.7,0,0,0,0,0,0,1007.3,1021.6
2023-04-03T02:16:00+09:00,1.7,�k�k��,2.8,�k�k��,8.1,79,0,0,0,0,0,0,1007.4,1021.7
2023-04-03T02:17:00+09:00,1.6,�k�k��,2.8,�k�k��,8.2,79.3,0,0,0,0,0,0,1007.4,1021.7
2023-04-03T02:18:00+09:00,1.7,�k�k��,3.3,�k�k��,8.2,79.2,0,0,0,0,0,0,1007.3,1021.6
2023-04-03T02:19:00+09:00,1.6,�k�k��,3.3,�k�k��,8.2,79.2,0,0,0,0,0,0,1007.3,1021.6
2023-04-03T02:20:00+09:00,1.6,�k�k��,3.3,�k�k��,8.3,79.6,0,0,0,0,0,0,1007.3,1021.6
2023-04-03T02:21:00+09:00,1.5,�k�k��,3.3,�k�k��,8.2,79,0,0,0,0,0,0,1007.4,1021.7
2023-04-03T02:22:00+09:00,1.5,�k�k��,3.3,�k�k��,8.2,79.1,0,0,0,0,0,0,1007.4,1021.7
2023-04-03T02:23:00+09:00,1.5,�k,3.3,�k�k��,8,78.8,0,0,0,0,0,0,1007.4,1021.7
2023-04-03T02:24:00+09:00,1.4,�k,3.3,�k�k��,7.9,78.6,0,0,0,0,0,0,1007.4,1021.7
2023-04-03T02:25:00+09:00,1.3,�k,3.3,�k�k��,7.9,79.1,0,0,0,0,0,0,1007.4,1021.7
2023-04-03T02:26:00+09:00,1.3,�k,3.3,�k�k��,7.8,79.2,0,0,0,0,0,0,1007.4,1021.7
2023-04-03T02:27:00+09:00,1.3,�k,3.4,�k�k��,7.8,79.6,0,0,0,0,0,0,1007.4,1021.7
2023-04-03T02:28:00+09:00,1.4,�k,3.8,�k�k��,8.1,80.4,0,0,0,0,0,0,1007.4,1021.7
2023-04-03T02:29:00+09:00,1.4,�k,3.8,�k�k��,8.1,80.6,0,0,0,0,0,0,1007.4,1021.7
2023-04-03T02:30:00+09:00,1.4,�k,3.8,�k�k��,8.1,80.4,0,0,0,0,0,0,1007.4,1021.7
2023-04-03T02:31:00+09:00,1.4,�k,3.8,�k�k��,8.1,80.3,0,0,0,0,0,0,1007.4,1021.7
2023-04-03T02:32:00+09:00,1.5,�k,3.8,�k�k��,8.3,80.2,0,0,0,0,0,0,1007.4,1021.7
2023-04-03T02:33:00+09:00,1.6,�k,3.8,�k�k��,8.4,80.2,0,0,0,0,0,0,1007.4,1021.6
2023-04-03T02:34:00+09:00,1.7,�k,3.8,�k�k��,8.5,80.1,0,0,0,0,0,0,1007.5,1021.7
2023-04-03T02:35:00+09:00,1.7,�k,3.8,�k�k��,8.5,79.8,0,0,0,0,0,0,1007.5,1021.7
2023-04-03T02:36:00+09:00,1.7,�k,3.8,�k�k��,8.4,79.1,0,0,0,0,0,0,1007.5,1021.8
2023-04-03T02:37:00+09:00,1.7,�k,3.8,�k�k��,8.5,78.8,0,0,0,0,0,0,1007.5,1021.7
2023-04-03T02:38:00+09:00,1.6,�k,3.8,�k�k��,8.6,78.9,0,0,0,0,0,0,1007.5,1021.7
2023-04-03T02:39:00+09:00,1.6,�k,3.3,�k,8.6,78.7,0,0,0,0,0,0,1007.5,1021.7
2023-04-03T02:40:00+09:00,1.7,�k,3.6,�k�k��,8.5,78.3,0,0,0,0,0,0,1007.5,1021.7
2023-04-03T02:41:00+09:00,1.9,�k�k��,4,�k�k��,8.5,78.1,0,0,0,0,0,0,1007.5,1021.7
2023-04-03T02:42:00+09:00,1.9,�k,4.6,�k�k��,8.4,78,0,0,0,0,0,0,1007.5,1021.8
2023-04-03T02:43:00+09:00,2,�k�k��,4.6,�k�k��,8.6,78.5,0,0,0,0,0,0,1007.5,1021.7
2023-04-03T02:44:00+09:00,2.1,�k�k��,4.6,�k�k��,8.7,78.6,0,0,0,0,0,0,1007.5,1021.7
2023-04-03T02:45:00+09:00,2.3,�k�k��,4.6,�k�k��,8.7,78.3,0,0,0,0,0,0,1007.6,1021.8
2023-04-03T02:46:00+09:00,2.6,�k�k��,5,�k�k��,8.8,78,0,0,0,0,0,0,1007.6,1021.8
2023-04-03T02:47:00+09:00,2.6,�k�k��,5,�k�k��,8.7,77.5,0,0,0,0,0,0,1007.6,1021.8
2023-04-03T02:48:00+09:00,2.8,�k�k��,5.1,�k�k��,8.7,77.1,0,0,0,0,0,0,1007.6,1021.8
2023-04-03T02:49:00+09:00,2.9,�k�k��,5.1,�k�k��,8.7,77.2,0,0,0,0,0,0,1007.6,1021.8
2023-04-03T02:50:00+09:00,2.9,�k�k��,5.1,�k�k��,8.7,77.1,0,0,0,0,0,0,1007.6,1021.8
2023-04-03T02:51:00+09:00,2.9,�k�k��,5.1,�k�k��,8.9,77.4,0,0,0,0,0,0,1007.6,1021.8
2023-04-03T02:52:00+09:00,3,�k�k��,5.1,�k�k��,8.8,77.2,0,0,0,0,0,0,1007.6,1021.8
2023-04-03T02:53:00+09:00,3,�k�k��,5.1,�k�k��,8.9,76.9,0,0,0,0,0,0,1007.6,1021.8
2023-04-03T02:54:00+09:00,2.9,�k�k��,5.1,�k�k��,8.8,76.6,0,0,0,0,0,0,1007.6,1021.8
2023-04-03T02:55:00+09:00,2.8,�k�k��,5.1,�k�k��,8.6,76,0,0,0,0,0,0,1007.6,1021.8
2023-04-03T02:56:00+09:00,2.7,�k�k��,5.1,�k�k��,8.6,76.2,0,0,0,0,0,0,1007.6,1021.8
2023-04-03T02:57:00+09:00,,,,,,,,,,,,,,
2023-04-03T02:58:00+09:00,2.5,�k,4.6,�k�k��,8.5,76.5,0,0,0,0,0,0,1007.7,1021.9
2023-04-03T02:59:00+09:00,2.3,�k,4.6,�k�k��,8.5,76.5,0,0,0,0,0,0,1007.6,1021.8
2023-04-03T03:00:00+09:00,2.2,�k,4.6,�k�k��,8.5,77.1,0,0,0,0,0,0,1007.6,1021.8
2023-04-03T03:01:00+09:00,2.2,�k,4.7,�k�k��,8.6,77.1,0,0,0,0,0,0,1007.6,1021.8
2023-04-03T03:02:00+09:00,2.1,�k,4.7,�k�k��,8.6,77.1,0,0,0,0,0,0,1007.6,1021.8
2023-04-03T03:03:00+09:00,2,�k,4.7,�k�k��,8.6,77.1,0,0,0,0,0,0,1007.6,1021.8
2023-04-03T03:04:00+09:00,1.8,�k,4.7,�k�k��,8.5,77,0,0,0,0,0,0,1007.6,1021.8
2023-04-03T03:05:00+09:00,1.7,�k,4.7,�k�k��,8.6,77.2,0,0,0,0,0,0,1007.6,1021.8
2023-04-03T03:06:00+09:00,1.6,�k,4.7,�k�k��,8.5,77.1,0,0,0,0,0,0,1007.6,1021.8
2023-04-03T03:07:00+09:00,1.5,�k,4.7,�k�k��,8.5,76.9,0,0,0,0,0,0,1007.6,1021.8
2023-04-03T03:08:00+09:00,1.5,�k,4.7,�k�k��,8.4,76.8,0,0,0,0,0,0,1007.6,1021.9
2023-04-03T03:09:00+09:00,1.4,�k,4.7,�k�k��,8.5,77.2,0,0,0,0,0,0,1007.7,1021.9
2023-04-03T03:10:00+09:00,1.4,�k,4.7,�k�k��,8.5,77.4,0,0,0,0,0,0,1007.7,1021.9
2023-04-03T03:11:00+09:00,1.3,�k,3.8,�k�k��,8.5,77.5,0,0,0,0,0,0,1007.7,1021.9
2023-04-03T03:12:00+09:00,1.2,�k,2.9,�k,8.5,77.5,0,0,0,0,0,0,1007.7,1021.9
2023-04-03T03:13:00+09:00,1.2,�k�k��,2.9,�k,8.5,77.4,0,0,0,0,0,0,1007.7,1021.9
2023-04-03T03:14:00+09:00,1.2,�k�k��,2.9,�k,8.4,77.5,0,0,0,0,0,0,1007.7,1022
2023-04-03T03:15:00+09:00,1.2,�k�k��,3.1,�k,8.5,77.5,0,0,0,0,0,0,1007.7,1021.9
2023-04-03T03:16:00+09:00,1.3,�k,3.2,�k�k��,8.6,77.9,0,0,0,0,0,0,1007.8,1022
2023-04-03T03:17:00+09:00,1.4,�k,3.4,�k,8.7,77.7,0,0,0,0,0,0,1007.8,1022
2023-04-03T03:18:00+09:00,1.5,�k,3.5,�k�k��,8.7,77.4,0,0,0,0,0,0,1007.8,1022
2023-04-03T03:19:00+09:00,1.5,�k,4,�k�k��,8.7,76.9,0,0,0,0,0,0,1007.8,1022
2023-04-03T03:20:00+09:00,1.7,�k,5,�k�k��,8.7,76.3,0,0,0,0,0,0,1007.8,1022
2023-04-03T03:21:00+09:00,1.7,�k,5,�k�k��,8.8,76.3,0,0,0,0,0,0,1007.8,1022
2023-04-03T03:22:00+09:00,1.8,�k,5,�k�k��,8.9,75.8,0,0,0,0,0,0,1007.9,1022.1
2023-04-03T03:23:00+09:00,1.8,�k,5,�k�k��,8.8,75.5,0,0,0,0,0,0,1007.8,1022
2023-04-03T03:24:00+09:00,1.8,�k,5,�k�k��,8.7,75,0,0,0,0,0,0,1007.8,1022
2023-04-03T03:25:00+09:00,1.9,�k,5,�k�k��,8.8,75,0,0,0,0,0,0,1007.8,1022
2023-04-03T03:26:00+09:00,2.1,�k,5.2,�k�k��,8.9,75.2,0,0,0,0,0,0,1007.8,1022
2023-04-03T03:27:00+09:00,2.1,�k,5.2,�k�k��,8.9,75,0,0,0,0,0,0,1007.8,1022
2023-04-03T03:28:00+09:00,2.2,�k,5.3,�k,8.9,74.7,0,0,0,0,0,0,1007.8,1022
2023-04-03T03:29:00+09:00,2.4,�k,5.3,�k,8.9,74.4,0,0,0,0,0,0,1007.9,1022.1
2023-04-03T03:30:00+09:00,2.3,�k,5.3,�k,9,74.4,0,0,0,0,0,0,1007.8,1022
2023-04-03T03:31:00+09:00,2.3,�k,5.3,�k,9.1,74.4,0,0,0,0,0,0,1007.8,1022
2023-04-03T03:32:00+09:00,2.3,�k,5.3,�k,9.1,74.1,0,0,0,0,0,0,1007.9,1022.1
2023-04-03T03:33:00+09:00,2.3,�k,5.3,�k,8.9,73.5,0,0,0,0,0,0,1007.9,1022.1
2023-04-03T03:34:00+09:00,2.3,�k,5.3,�k,9,73.5,0,0,0,0,0,0,1007.9,1022.1
2023-04-03T03:35:00+09:00,2.2,�k,5.3,�k,9,73.8,0,0,0,0,0,0,1007.8,1022
2023-04-03T03:36:00+09:00,2,�k,5.3,�k,8.9,73.6,0,0,0,0,0,0,1007.9,1022.1
2023-04-03T03:37:00+09:00,2.1,�k,5.3,�k,9,73.7,0,0,0,0,0,0,1007.9,1022.1
2023-04-03T03:38:00+09:00,2.1,�k,4.9,�k,9,73.8,0,0,0,0,0,0,1007.9,1022.1
2023-04-03T03:39:00+09:00,2,�k,4.5,�k�k��,9.1,73.6,0,0,0,0,0,0,1007.9,1022.1
2023-04-03T03:40:00+09:00,1.9,�k,4.5,�k�k��,9,73.4,0,0,0,0,0,0,1007.9,1022.1
2023-04-03T03:41:00+09:00,1.8,�k,4.5,�k�k��,9,73,0,0,0,0,0,0,1007.9,1022.1
2023-04-03T03:42:00+09:00,1.9,�k,4.5,�k�k��,9,73.1,0,0,0,0,0,0,1008,1022.2
2023-04-03T03:43:00+09:00,1.9,�k,4.3,�k,9,73.1,0,0,0,0,0,0,1008,1022.2
2023-04-03T03:44:00+09:00,2.1,�k,4.5,�k�k��,9.1,73.1,0,0,0,0,0,0,1008,1022.2
2023-04-03T03:45:00+09:00,2.2,�k�k��,4.5,�k�k��,9,72.9,0,0,0,0,0,0,1008,1022.2
2023-04-03T03:46:00+09:00,2.3,�k�k��,5.5,�k,9.1,72.9,0,0,0,0,0,0,1008,1022.2
2023-04-03T03:47:00+09:00,2.2,�k�k��,5.5,�k,9.1,72.7,0,0,0,0,0,0,1008,1022.2
2023-04-03T03:48:00+09:00,2.2,�k�k��,5.5,�k,9.1,72.4,0,0,0,0,0,0,1008,1022.2
2023-04-03T03:49:00+09:00,2.3,�k�k��,5.5,�k,9.2,72.4,0,0,0,0,0,0,1008,1022.2
2023-04-03T03:50:00+09:00,2.5,�k�k��,5.5,�k,9.2,72.3,0,0,0,0,0,0,1008,1022.2
2023-04-03T03:51:00+09:00,2.6,�k�k��,5.5,�k,9.3,72,0,0,0,0,0,0,1008,1022.2
2023-04-03T03:52:00+09:00,2.6,�k�k��,5.5,�k,9.1,71.5,0,0,0,0,0,0,1008,1022.2
2023-04-03T03:53:00+09:00,2.7,�k�k��,5.5,�k,9,71.4,0,0,0,0,0,0,1008,1022.2
2023-04-03T03:54:00+09:00,2.8,�k�k��,6.7,�k,9,71.7,0,0,0,0,0,0,1008,1022.2
2023-04-03T03:55:00+09:00,2.9,�k�k��,6.7,�k,9.1,71.9,0,0,0,0,0,0,1008,1022.2
2023-04-03T03:56:00+09:00,3,�k�k��,6.7,�k,9.3,72.2,0,0,0,0,0,0,1008,1022.2
2023-04-03T03:57:00+09:00,3.2,�k�k��,6.7,�k,9,71.6,0,0,0,0,0,0,1008,1022.2
2023-04-03T03:58:00+09:00,3.2,�k�k��,6.7,�k,9.3,72,0,0,0,0,0,0,1008,1022.2
2023-04-03T03:59:00+09:00,3.1,�k�k��,6.7,�k,9.3,71.9,0,0,0,0,0,0,1008,1022.2
2023-04-03T04:00:00+09:00,3.1,�k�k��,6.7,�k,9.2,71.3,0,0,0,0,0,0,1008,1022.2
2023-04-03T04:01:00+09:00,3.1,�k�k��,6.7,�k,9.3,71.4,0,0,0,0,0,0,1008.1,1022.3
2023-04-03T04:02:00+09:00,3.1,�k�k��,6.7,�k,9.1,70.7,0,0,0,0,0,0,1008.1,1022.3
2023-04-03T04:03:00+09:00,3.1,�k�k��,6.7,�k,9.1,70.5,0,0,0,0,0,0,1008.1,1022.3
2023-04-03T04:04:00+09:00,3.1,�k�k��,6.1,�k�k��,9.1,70.7,0,0,0,0,0,0,1008.1,1022.3
2023-04-03T04:05:00+09:00,3.2,�k�k��,6.1,�k�k��,9.2,70.9,0,0,0,0,0,0,1008.2,1022.4
2023-04-03T04:06:00+09:00,3.1,�k�k��,6.1,�k�k��,9.2,70.8,0,0,0,0,0,0,1008.2,1022.4
2023-04-03T04:07:00+09:00,3,�k�k��,6,�k�k��,9.2,70.7,0,0,0,0,0,0,1008.2,1022.4
2023-04-03T04:08:00+09:00,2.8,�k�k��,6,�k�k��,9.2,70.6,0,0,0,0,0,0,1008.3,1022.5
2023-04-03T04:09:00+09:00,2.8,�k�k��,6,�k�k��,9,70,0,0,0,0,0,0,1008.2,1022.4
2023-04-03T04:10:00+09:00,2.7,�k�k��,6,�k�k��,9,70.1,0,0,0,0,0,0,1008.2,1022.4
2023-04-03T04:11:00+09:00,2.7,�k�k��,6,�k�k��,9.2,70.6,0,0,0,0,0,0,1008.2,1022.4
2023-04-03T04:12:00+09:00,2.7,�k�k��,6,�k�k��,9.3,71,0,0,0,0,0,0,1008.3,1022.5
2023-04-03T04:13:00+09:00,2.7,�k�k��,6,�k�k��,9.4,71,0,0,0,0,0,0,1008.3,1022.5
2023-04-03T04:14:00+09:00,2.5,�k�k��,5.8,�k��,9.2,70.3,0,0,0,0,0,0,1008.3,1022.5
2023-04-03T04:15:00+09:00,2.2,�k�k��,5.8,�k��,9.1,69.9,0,0,0,0,0,0,1008.3,1022.5
2023-04-03T04:16:00+09:00,2,�k�k��,5.8,�k��,9.1,70.2,0,0,0,0,0,0,1008.3,1022.5
2023-04-03T04:17:00+09:00,1.9,�k�k��,4.4,�k,8.9,70.2,0,0,0,0,0,0,1008.3,1022.5
2023-04-03T04:18:00+09:00,1.9,�k�k��,4.4,�k,9,70.6,0,0,0,0,0,0,1008.3,1022.5
2023-04-03T04:19:00+09:00,1.8,�k�k��,4,�k��,8.8,70.6,0,0,0,0,0,0,1008.4,1022.6
2023-04-03T04:20:00+09:00,1.7,�k,5.1,�k�k��,8.8,71,0,0,0,0,0,0,1008.3,1022.5
2023-04-03T04:21:00+09:00,1.6,�k,5.3,�k,8.9,71.4,0,0,0,0,0,0,1008.4,1022.6
2023-04-03T04:22:00+09:00,1.7,�k,5.3,�k,8.9,71.5,0,0,0,0,0,0,1008.3,1022.5
2023-04-03T04:23:00+09:00,1.9,�k,6.1,�k�k��,9,71.5,0,0,0,0,0,0,1008.4,1022.6
2023-04-03T04:24:00+09:00,2,�k,6.1,�k�k��,9.1,71.5,0,0,0,0,0,0,1008.4,1022.6
2023-04-03T04:25:00+09:00,2.2,�k,6.1,�k�k��,9.2,71.1,0,0,0,0,0,0,1008.4,1022.6
2023-04-03T04:26:00+09:00,2.3,�k,6.1,�k�k��,9.1,70.6,0,0,0,0,0,0,1008.4,1022.6
2023-04-03T04:27:00+09:00,2.3,�k,6.1,�k�k��,8.9,70,0,0,0,0,0,0,1008.4,1022.6
2023-04-03T04:28:00+09:00,2.4,�k,6.1,�k�k��,8.7,70.1,0,0,0,0,0,0,1008.4,1022.6
2023-04-03T04:29:00+09:00,2.5,�k,6.1,�k�k��,8.7,70.8,0,0,0,0,0,0,1008.4,1022.6
2023-04-03T04:30:00+09:00,2.6,�k,6.1,�k�k��,8.7,71.2,0,0,0,0,0,0,1008.5,1022.8
2023-04-03T04:31:00+09:00,2.6,�k,6.1,�k�k��,8.6,71.6,0,0,0,0,0,0,1008.5,1022.8
2023-04-03T04:32:00+09:00,2.4,�k,6.1,�k�k��,8.6,71.8,0,0,0,0,0,0,1008.6,1022.9
2023-04-03T04:33:00+09:00,2.1,�k,5.5,�k�k��,8.4,71.9,0,0,0,0,0,0,1008.5,1022.8
2023-04-03T04:34:00+09:00,2,�k,5.5,�k�k��,8.4,72.4,0,0,0,0,0,0,1008.6,1022.9
2023-04-03T04:35:00+09:00,1.9,�k,5.5,�k�k��,8.4,72.9,0,0,0,0,0,0,1008.6,1022.9
2023-04-03T04:36:00+09:00,1.9,�k,5.5,�k�k��,8.4,73.1,0,0,0,0,0,0,1008.6,1022.9
2023-04-03T04:37:00+09:00,2,�k,5.5,�k�k��,8.5,73.4,0,0,0,0,0,0,1008.6,1022.9
2023-04-03T04:38:00+09:00,1.9,�k,5.1,�k�k��,8.5,73.3,0,0,0,0,0,0,1008.6,1022.9
2023-04-03T04:39:00+09:00,1.8,�k,5.1,�k�k��,8.4,73,0,0,0,0,0,0,1008.7,1023
2023-04-03T04:40:00+09:00,1.8,�k�k��,5.1,�k�k��,8.4,72.9,0,0,0,0,0,0,1008.6,1022.9
2023-04-03T04:41:00+09:00,1.8,�k�k��,4.9,�k,8.4,73.1,0,0,0,0,0,0,1008.7,1023
2023-04-03T04:42:00+09:00,1.9,�k�k��,4.9,�k,8.3,73,0,0,0,0,0,0,1008.7,1023
2023-04-03T04:43:00+09:00,1.9,�k�k��,4.9,�k,8.3,73,0,0,0,0,0,0,1008.7,1023
2023-04-03T04:44:00+09:00,1.8,�k�k��,4.9,�k,8.3,73.2,0,0,0,0,0,0,1008.8,1023.1
2023-04-03T04:45:00+09:00,1.8,�k�k��,4.9,�k,8.4,73.3,0,0,0,0,0,0,1008.8,1023.1
2023-04-03T04:46:00+09:00,1.8,�k�k��,4.9,�k,8.4,73.4,0,0,0,0,0,0,1008.8,1023.1
2023-04-03T04:47:00+09:00,1.8,�k�k��,3.9,�k,8.4,73.5,0,0,0,0,0,0,1008.8,1023.1
2023-04-03T04:48:00+09:00,1.8,�k�k��,5.2,�k,8.3,73.3,0,0,0,0,0,0,1008.8,1023.1
2023-04-03T04:49:00+09:00,1.9,�k�k��,5.2,�k,8.3,73.1,0,0,0,0,0,0,1008.8,1023.1
2023-04-03T04:50:00+09:00,2,�k�k��,5.2,�k,8.2,73.1,0,0,0,0,0,0,1008.8,1023.1
2023-04-03T04:51:00+09:00,2,�k�k��,5.2,�k,8.2,73.1,0,0,0,0,0,0,1008.7,1023
2023-04-03T04:52:00+09:00,1.9,�k�k��,5.2,�k,8.2,73.3,0,0,0,0,0,0,1008.7,1023
2023-04-03T04:53:00+09:00,1.9,�k�k��,5.2,�k,8.2,73.4,0,0,0,0,0,0,1008.7,1023
2023-04-03T04:54:00+09:00,2,�k�k��,5.2,�k,8.3,73.7,0,0,0,0,0,0,1008.8,1023.1
2023-04-03T04:55:00+09:00,2,�k�k��,5.2,�k,8.4,73.6,0,0,0,0,0,0,1008.8,1023.1
2023-04-03T04:56:00+09:00,1.9,�k�k��,5.2,�k,8.5,73.4,0,0,0,0,0,0,1008.8,1023.1
2023-04-03T04:57:00+09:00,1.9,�k�k��,5.2,�k,8.5,72.8,0,0,0,0,0,0,1008.8,1023.1
2023-04-03T04:58:00+09:00,2,�k,4.7,�k�k��,8.5,72.6,0,0,0,0,0,0,1008.8,1023.1
2023-04-03T04:59:00+09:00,2,�k,4.7,�k�k��,8.6,72.8,0,0,0,0,0,0,1008.8,1023.1
2023-04-03T05:00:00+09:00,1.9,�k,4.7,�k�k��,8.3,72.1,0,0,0,0,0,0,1008.8,1023.1
2023-04-03T05:01:00+09:00,2,�k,4.7,�k�k��,8.2,71.7,0,0,0,0,0,0,1008.8,1023.1
2023-04-03T05:02:00+09:00,2.1,�k,4.7,�k�k��,8.3,72.2,0,0,0,0,0,0,1008.8,1023.1
2023-04-03T05:03:00+09:00,2.2,�k,4.7,�k�k��,8.4,72.8,0,0,0,0,0,0,1008.9,1023.2
2023-04-03T05:04:00+09:00,2.2,�k,4.7,�k�k��,8.3,72.6,0,0,0,0,0,0,1008.9,1023.2
2023-04-03T05:05:00+09:00,2.2,�k,4.7,�k�k��,8.4,72.2,0,0,0,0,0,0,1008.9,1023.2